Location: Dilsberg
(49.3983°N, 8.8354°E)
Time: 19:44:04
(UTC+00:00)

Celestis-02/Orion 38 - Pass Details

Date: 19 May 2025
Orbit: 773 x 861 km, 108.0° (Epoch: 20 June)

Event Time Altitude Azimuth Distance (km) Brightness Sun altitude
Exits shadow 23:31:30 43° 171° (S) 1,088 4.8 -20.6°
Maximum altitude 23:33:08 72° 242° (WSW) 825 4.5 -20.6°
Drops below altitude 10° 23:38:13 10° 327° (NNW) 2,333 7.7 -20.5°
Sets 23:40:31 0° 330° (NNW) 3,262 8.6 -20.5°
